| time (UTC) | temp F | wind direction | speed knots | gust knots | rain 1hr in | rain 24hr in | rain mn in | humidity % | barometer mb |
| 20260831022121 | 73 | 313 | 1.7 | 3.5 | 0.01 | 0.01 | 0.01 | 99 | 1017.2 |
| 20260831021121 | 74 | 317 | 0.9 | 2.6 | 0.01 | 0.01 | 0.01 | 99 | 1017.2 |
| 20260831020144 | 74 | 360 | 0.0 | 1.7 | 0.00 | 0.00 | 0.00 | 99 | 1017.2 |
| 20260831015124 | 75 | 45 | 0.0 | 0.0 | 0.00 | 0.00 | 0.00 | 99 | 1017.2 |
| 20260831014121 | 75 | 314 | 0.0 | 1.7 | 0.00 | 0.00 | 0.00 | 99 | 1017.1 |
| 20260831013121 | 75 | 311 | 0.9 | 3.5 | 0.00 | 0.00 | 0.00 | 99 | 1016.9 |
| 20260831012122 | 75 | 247 | 0.0 | 1.7 | 0.00 | 0.00 | 0.00 | 99 | 1016.8 |
| 20260831011121 | 75 | 247 | 0.0 | 0.9 | 0.00 | 0.00 | 0.00 | 99 | 1016.8 |
| 20260831010122 | 75 | 215 | 0.0 | 1.7 | 0.00 | 0.00 | 0.00 | 99 | 1016.8 |
| 20260831005123 | 75 | 239 | 0.9 | 1.7 | 0.00 | 0.00 | 0.00 | 99 | 1016.6 |
| 20260831004123 | 76 | 243 | 1.7 | 3.5 | 0.00 | 0.00 | 0.00 | 98 | 1016.5 |
| 20260831003143 | 76 | 223 | 0.9 | 3.5 | 0.00 | 0.00 | 0.00 | 96 | 1016.4 |
| 20260831002124 | 76 | 226 | 1.7 | 3.5 | 0.00 | 0.00 | 0.00 | 94 | 1016.2 |
| 20260831001143 | 77 | 259 | 1.7 | 3.5 | 0.00 | 0.00 | 0.00 | 92 | 1016.2 |
| 20260831000122 | 77 | 232 | 0.9 | 2.6 | 0.00 | 0.00 | 0.00 | 91 | 1016.2 |
| 20260830235143 | 77 | 215 | 0.9 | 2.6 | 0.00 | 0.00 | 0.00 | 90 | 1016.1 |
| 20260830234121 | 77 | 251 | 1.7 | 4.3 | 0.00 | 0.00 | 0.00 | 90 | 1016.1 |
| 20260830233121 | 77 | 230 | 0.9 | 3.5 | 0.00 | 0.00 | 0.00 | 90 | 1016.1 |
| 20260830232121 | 77 | 221 | 0.9 | 2.6 | 0.00 | 0.00 | 0.00 | 90 | 1016.0 |
| 20260830231121 | 77 | 240 | 1.7 | 2.6 | 0.00 | 0.00 | 0.00 | 89 | 1016.0 |
| 20260830230121 | 78 | 245 | 0.9 | 2.6 | 0.00 | 0.00 | 0.00 | 89 | 1016.0 |
| 20260830225122 | 78 | 214 | 0.9 | 2.6 | 0.00 | 0.00 | 0.00 | 88 | 1016.0 |
| 20260830224121 | 78 | 224 | 1.7 | 3.5 | 0.00 | 0.00 | 0.00 | 87 | 1015.9 |
| 20260830223121 | 78 | 220 | 1.7 | 4.3 | 0.00 | 0.00 | 0.00 | 87 | 1016.2 |
| 20260830222122 | 79 | 245 | 1.7 | 3.5 | 0.00 | 0.00 | 0.00 | 85 | 1016.2 |
| 20260830221142 | 79 | 251 | 1.7 | 3.5 | 0.00 | 0.00 | 0.00 | 84 | 1016.4 |
| 20260830220122 | 80 | 192 | 1.7 | 3.5 | 0.00 | 0.00 | 0.00 | 83 | 1016.4 |
| 20260830215121 | 80 | 212 | 1.7 | 2.6 | 0.00 | 0.00 | 0.00 | 82 | 1016.2 |
| 20260830214123 | 81 | 221 | 2.6 | 3.5 | 0.00 | 0.00 | 0.00 | 80 | 1016.2 |
| 20260830213142 | 80 | 244 | 1.7 | 4.3 | 0.00 | 0.00 | 0.00 | 81 | 1016.2 |
| 20260830212123 | 80 | 222 | 2.6 | 4.3 | 0.00 | 0.00 | 0.00 | 81 | 1016.2 |
| 20260830211122 | 80 | 244 | 1.7 | 3.5 | 0.00 | 0.00 | 0.00 | 82 | 1016.5 |
| 20260830210124 | 80 | 194 | 2.6 | 4.3 | 0.00 | 0.00 | 0.00 | 83 | 1016.5 |
| 20260830205122 | 79 | 227 | 2.6 | 4.3 | 0.00 | 0.00 | 0.00 | 84 | 1016.5 |
| 20260830204122 | 79 | 228 | 2.6 | 4.3 | 0.00 | 0.00 | 0.00 | 84 | 1016.5 |
| 20260830203123 | 79 | 218 | 2.6 | 5.2 | 0.00 | 0.00 | 0.00 | 84 | 1016.7 |
| 20260830202143 | 79 | 242 | 2.6 | 6.1 | 0.00 | 0.00 | 0.00 | 82 | 1016.7 |
| 20260830201143 | 79 | 185 | 2.6 | 5.2 | 0.00 | 0.00 | 0.00 | 81 | 1016.9 |
| 20260830200122 | 79 | 251 | 2.6 | 6.1 | 0.00 | 0.00 | 0.00 | 81 | 1016.9 |
| 20260830195143 | 80 | 245 | 3.5 | 5.2 | 0.00 | 0.00 | 0.00 | 80 | 1016.8 |
| 20260830194144 | 79 | 205 | 3.5 | 7.8 | 0.00 | 0.00 | 0.00 | 79 | 1017.0 |
| 20260830193121 | 79 | 235 | 2.6 | 5.2 | 0.00 | 0.00 | 0.00 | 80 | 1017.1 |
| 20260830192121 | 78 | 228 | 3.5 | 6.1 | 0.00 | 0.00 | 0.00 | 79 | 1017.4 |
| 20260830191121 | 80 | 295 | 2.6 | 4.3 | 0.00 | 0.00 | 0.00 | 77 | 1017.6 |
| 20260830190121 | 79 | 262 | 2.6 | 4.3 | 0.00 | 0.00 | 0.00 | 77 | 1017.6 |
| 20260830185121 | 78 | 222 | 3.5 | 6.1 | 0.00 | 0.00 | 0.00 | 77 | 1017.8 |
| 20260830184121 | 79 | 247 | 2.6 | 6.1 | 0.00 | 0.00 | 0.00 | 75 | 1017.9 |
| 20260830183124 | 80 | 192 | 2.6 | 7.0 | 0.00 | 0.00 | 0.00 | 74 | 1018.0 |
| 20260830182144 | 80 | 253 | 3.5 | 5.2 | 0.00 | 0.00 | 0.00 | 72 | 1018.2 |
| 20260830181121 | 80 | 254 | 3.5 | 5.2 | 0.00 | 0.00 | 0.00 | 73 | 1018.2 |
| 20260830180122 | 80 | 257 | 3.5 | 6.1 | 0.00 | 0.00 | 0.00 | 71 | 1018.2 |
| 20260830175142 | 80 | 243 | 3.5 | 6.1 | 0.00 | 0.00 | 0.00 | 70 | 1018.2 |
| 20260830174121 | 80 | 234 | 2.6 | 6.1 | 0.00 | 0.00 | 0.00 | 71 | 1018.4 |
| 20260830173121 | 80 | 226 | 3.5 | 7.0 | 0.00 | 0.00 | 0.00 | 72 | 1018.5 |
| 20260830172123 | 81 | 248 | 2.6 | 5.2 | 0.00 | 0.00 | 0.00 | 71 | 1018.5 |
| 20260830171123 | 81 | 232 | 3.5 | 5.2 | 0.00 | 0.00 | 0.00 | 70 | 1018.7 |
| 20260830170123 | 81 | 251 | 3.5 | 7.0 | 0.00 | 0.00 | 0.00 | 70 | 1018.7 |
| 20260830165143 | 84 | 252 | 3.5 | 6.1 | 0.00 | 0.00 | 0.00 | 66 | 1018.8 |
| 20260830164122 | 83 | 220 | 3.5 | 6.1 | 0.00 | 0.00 | 0.00 | 68 | 1018.8 |
| 20260830163122 | 82 | 261 | 4.3 | 7.8 | 0.00 | 0.00 | 0.00 | 68 | 1019.1 |
| 20260830162143 | 82 | 243 | 3.5 | 7.8 | 0.00 | 0.00 | 0.00 | 66 | 1019.1 |
| 20260830161122 | 83 | 247 | 3.5 | 6.1 | 0.00 | 0.00 | 0.00 | 64 | 1019.2 |
| 20260830160124 | 82 | 214 | 3.5 | 5.2 | 0.00 | 0.00 | 0.00 | 66 | 1019.2 |
| 20260830155145 | 81 | 258 | 3.5 | 7.0 | 0.00 | 0.00 | 0.00 | 68 | 1019.2 |
| 20260830154121 | 81 | 250 | 4.3 | 7.0 | 0.00 | 0.00 | 0.00 | 66 | 1019.5 |
| 20260830153121 | 82 | 259 | 3.5 | 6.1 | 0.00 | 0.00 | 0.00 | 65 | 1019.6 |
| 20260830152121 | 80 | 247 | 4.3 | 7.0 | 0.00 | 0.00 | 0.00 | 67 | 1019.7 |
| 20260830151142 | 79 | 243 | 4.3 | 9.6 | 0.00 | 0.00 | 0.00 | 67 | 1019.9 |
| 20260830150142 | 81 | 247 | 4.3 | 7.0 | 0.00 | 0.00 | 0.00 | 64 | 1019.9 |
| 20260830145121 | 82 | 253 | 3.5 | 5.2 | 0.00 | 0.00 | 0.00 | 64 | 1019.8 |
| 20260830144142 | 81 | 258 | 3.5 | 7.0 | 0.00 | 0.00 | 0.00 | 63 | 1019.9 |
| 20260830143142 | 81 | 254 | 3.5 | 6.1 | 0.00 | 0.00 | 0.00 | 60 | 1019.9 |
| 20260830142121 | 80 | 260 | 3.5 | 7.8 | 0.00 | 0.00 | 0.00 | 57 | 1020.0 |
| 20260830141121 | 80 | 246 | 3.5 | 7.8 | 0.00 | 0.00 | 0.00 | 58 | 1020.2 |
| 20260830140121 | 79 | 226 | 3.5 | 6.1 | 0.00 | 0.00 | 0.00 | 61 | 1020.2 |
| 20260830135121 | 79 | 261 | 3.5 | 5.2 | 0.00 | 0.00 | 0.00 | 63 | 1020.4 |
| 20260830134122 | 78 | 229 | 3.5 | 6.1 | 0.00 | 0.00 | 0.00 | 63 | 1020.5 |
| 20260830133123 | 78 | 257 | 3.5 | 6.1 | 0.00 | 0.00 | 0.00 | 65 | 1020.6 |
| 20260830132125 | 77 | 249 | 3.5 | 6.1 | 0.00 | 0.00 | 0.00 | 67 | 1020.6 |
| 20260830131123 | 77 | 267 | 3.5 | 6.1 | 0.00 | 0.00 | 0.00 | 67 | 1020.6 |
| 20260830130122 | 75 | 234 | 3.5 | 6.1 | 0.00 | 0.00 | 0.00 | 69 | 1020.6 |
| 20260830125122 | 75 | 217 | 2.6 | 4.3 | 0.00 | 0.00 | 0.00 | 71 | 1020.7 |
| 20260830124122 | 73 | 250 | 1.7 | 2.6 | 0.00 | 0.00 | 0.00 | 77 | 1020.9 |
| 20260830123122 | 73 | 268 | 2.6 | 4.3 | 0.00 | 0.00 | 0.00 | 75 | 1020.9 |
| 20260830122122 | 73 | 213 | 1.7 | 4.3 | 0.00 | 0.00 | 0.00 | 78 | 1020.8 |
| 20260830121122 | 71 | 247 | 1.7 | 3.5 | 0.00 | 0.00 | 0.00 | 83 | 1020.8 |
| 20260830120143 | 70 | 247 | 0.0 | 1.7 | 0.00 | 0.00 | 0.00 | 88 | 1020.8 |
| 20260830115143 | 68 | 180 | 0.0 | 0.0 | 0.00 | 0.00 | 0.00 | 93 | 1020.7 |
| 20260830114121 | 68 | 225 | 0.0 | 0.0 | 0.00 | 0.00 | 0.00 | 93 | 1020.7 |
| 20260830113121 | 67 | 154 | 0.0 | 1.7 | 0.00 | 0.00 | 0.00 | 95 | 1020.7 |
| 20260830112121 | 64 | 169 | 0.0 | 1.7 | 0.00 | 0.00 | 0.00 | 99 | 1020.7 |
| 20260830111121 | 64 | 203 | 0.0 | 0.0 | 0.00 | 0.00 | 0.00 | 99 | 1020.7 |
| 20260830110121 | 63 | 203 | 0.0 | 0.0 | 0.00 | 0.00 | 0.00 | 99 | 1020.7 |
| 20260830105122 | 63 | 203 | 0.0 | 0.0 | 0.00 | 0.00 | 0.00 | 99 | 1020.6 |
| 20260830104121 | 63 | 270 | 0.0 | 0.0 | 0.00 | 0.00 | 0.00 | 99 | 1020.5 |
| 20260830103121 | 63 | 180 | 0.0 | 0.0 | 0.00 | 0.00 | 0.00 | 99 | 1020.6 |
| 20260830102121 | 63 | 113 | 0.0 | 0.0 | 0.00 | 0.00 | 0.00 | 98 | 1020.5 |
| 20260830101122 | 63 | 270 | 0.0 | 0.0 | 0.00 | 0.00 | 0.00 | 98 | 1020.5 |
| 20260830100142 | 63 | 203 | 0.0 | 0.0 | 0.00 | 0.00 | 0.00 | 97 | 1020.5 |
| 20260830095121 | 63 | 113 | 0.0 | 0.0 | 0.00 | 0.00 | 0.00 | 95 | 1020.6 |
| 20260830094144 | 63 | 180 | 0.0 | 0.0 | 0.00 | 0.00 | 0.00 | 95 | 1020.7 |
| 20260830093121 | 64 | 180 | 0.0 | 0.0 | 0.00 | 0.00 | 0.00 | 97 | 1020.6 |
| 20260830092121 | 64 | 113 | 0.0 | 0.0 | 0.00 | 0.00 | 0.00 | 94 | 1020.6 |
| 20260830091142 | 65 | 158 | 0.0 | 0.0 | 0.00 | 0.00 | 0.00 | 95 | 1020.6 |
| 20260830090123 | 65 | 270 | 0.0 | 2.6 | 0.00 | 0.00 | 0.00 | 95 | 1020.6 |
| 20260830085122 | 65 | 265 | 0.9 | 2.6 | 0.00 | 0.00 | 0.00 | 95 | 1020.7 |
| 20260830084121 | 65 | 270 | 0.9 | 3.5 | 0.00 | 0.00 | 0.00 | 95 | 1020.8 |
| 20260830083122 | 66 | 219 | 0.9 | 1.7 | 0.00 | 0.00 | 0.00 | 95 | 1020.8 |
| 20260830082144 | 66 | 252 | 0.9 | 3.5 | 0.00 | 0.00 | 0.00 | 95 | 1020.7 |
| 20260830081122 | 66 | 250 | 1.7 | 3.5 | 0.00 | 0.00 | 0.00 | 95 | 1021.0 |
| 20260830080122 | 65 | 245 | 0.9 | 2.6 | 0.00 | 0.00 | 0.00 | 95 | 1021.0 |
| 20260830075123 | 65 | 243 | 0.9 | 3.5 | 0.00 | 0.00 | 0.00 | 95 | 1020.9 |
| 20260830074125 | 65 | 240 | 0.9 | 3.5 | 0.00 | 0.00 | 0.00 | 95 | 1021.0 |
| 20260830073143 | 65 | 263 | 1.7 | 3.5 | 0.00 | 0.00 | 0.00 | 96 | 1021.0 |
| 20260830072121 | 65 | 223 | 1.7 | 3.5 | 0.00 | 0.00 | 0.00 | 95 | 1020.9 |
| 20260830071121 | 65 | 201 | 0.9 | 2.6 | 0.00 | 0.00 | 0.00 | 95 | 1021.0 |
| 20260830070122 | 65 | 169 | 0.0 | 0.9 | 0.00 | 0.00 | 0.00 | 94 | 1021.0 |
| 20260830065121 | 65 | 217 | 0.9 | 1.7 | 0.00 | 0.00 | 0.00 | 95 | 1021.0 |
| 20260830064125 | 65 | 205 | 0.0 | 2.6 | 0.00 | 0.00 | 0.00 | 95 | 1021.0 |
| 20260830063123 | 65 | 207 | 0.9 | 2.6 | 0.00 | 0.00 | 0.00 | 96 | 1021.0 |
| 20260830062122 | 64 | 218 | 0.9 | 2.6 | 0.00 | 0.00 | 0.00 | 98 | 1021.0 |
| 20260830061121 | 64 | 59 | 0.0 | 1.7 | 0.00 | 0.00 | 0.00 | 98 | 1020.9 |
| 20260830060123 | 64 | 276 | 0.0 | 2.6 | 0.00 | 0.00 | 0.00 | 98 | 1020.9 |
| 20260830055121 | 65 | 23 | 0.0 | 0.0 | 0.00 | 0.00 | 0.00 | 98 | 1020.8 |
| 20260830054121 | 65 | 225 | 0.0 | 1.7 | 0.00 | 0.00 | 0.00 | 98 | 1020.8 |
| 20260830053124 | 65 | 244 | 0.0 | 1.7 | 0.00 | 0.00 | 0.00 | 98 | 1020.8 |
| 20260830052123 | 65 | 245 | 0.9 | 3.5 | 0.00 | 0.00 | 0.00 | 99 | 1020.8 |
| 20260830051126 | 64 | 216 | 0.9 | 2.6 | 0.00 | 0.00 | 0.00 | 98 | 1020.7 |
| 20260830050143 | 64 | 225 | 0.0 | 0.0 | 0.00 | 0.00 | 0.00 | 97 | 1020.7 |
| 20260830045123 | 64 | 203 | 0.0 | 0.0 | 0.00 | 0.00 | 0.00 | 97 | 1020.6 |
| 20260830044122 | 63 | 270 | 0.0 | 0.0 | 0.00 | 0.00 | 0.00 | 95 | 1020.7 |
| 20260830043143 | 63 | 203 | 0.0 | 0.0 | 0.00 | 0.00 | 0.00 | 95 | 1020.7 |
| 20260830042123 | 63 | 180 | 0.0 | 0.0 | 0.00 | 0.00 | 0.00 | 93 | 1020.7 |
| 20260830041122 | 63 | 225 | 0.0 | 0.0 | 0.00 | 0.00 | 0.00 | 93 | 1020.6 |
| 20260830040125 | 63 | 248 | 0.0 | 0.0 | 0.00 | 0.00 | 0.00 | 93 | 1020.6 |
| 20260830035124 | 63 | 248 | 0.0 | 0.0 | 0.00 | 0.00 | 0.00 | 92 | 1020.7 |
| 20260830034121 | 63 | 113 | 0.0 | 0.0 | 0.00 | 0.00 | 0.00 | 90 | 1020.8 |
| 20260830033142 | 64 | 113 | 0.0 | 0.0 | 0.00 | 0.00 | 0.00 | 90 | 1020.8 |
| 20260830032122 | 64 | 113 | 0.0 | 0.0 | 0.00 | 0.00 | 0.00 | 90 | 1020.6 |
| 20260830031121 | 64 | 270 | 0.0 | 0.0 | 0.00 | 0.00 | 0.00 | 90 | 1020.6 |
| 20260830030121 | 64 | 270 | 0.0 | 0.0 | 0.00 | 0.00 | 0.00 | 89 | 1020.6 |
| 20260830025121 | 64 | 90 | 0.0 | 0.0 | 0.00 | 0.00 | 0.00 | 89 | 1020.6 |
| 20260830024122 | 64 | 113 | 0.0 | 0.0 | 0.00 | 0.00 | 0.00 | 87 | 1020.6 |
| 20260830023121 | 64 | 338 | 0.0 | 0.0 | 0.00 | 0.00 | 0.00 | 86 | 1020.6 |